#timestamp,LO_Frequency,Hit,StdDev 
1555671615.5,286046995.5,N
1555671635.4,286046994.9,N
1555671655.2,286046997.0,N
1555671675.1,286046999.1,N
1555671676.0,286046999.1,N
1555671695.8,286046998.4,N
1555671715.6,286046998.8,N
1555671735.5,286047001.2,N
1555671755.3,286046999.0,N
1555671775.2,286046997.2,N
1555671795.9,286046999.1,N
1555671815.7,286047000.5,N
1555671835.6,286047002.3,N
1555671855.4,286046998.1,N
1555671875.2,286047001.0,N
1555671895.1,286046998.1,N
1555671896.0,286046998.1,N
1555671915.8,286046999.1,N
1555671935.7,286046996.8,N
1555671955.5,286046999.2,N
1555671975.3,286046996.6,N
1555671995.2,286047000.6,N
1555672015.0,286046999.9,N
1555672015.9,286046999.9,N
1555672035.7,286046998.6,N
1555672055.6,286046998.4,N
1555672075.4,286046998.4,N
1555672095.3,286046999.5,N
1555672115.1,286047001.1,N
1555672116.0,286047001.1,N
1555672135.8,286047000.5,N
1555672155.7,286047002.3,N
1555672175.1,286047001.6,N
1555672195.9,286047001.5,N
1555672215.7,286047002.7,N
1555672235.6,286047002.8,N
1555672255.4,286047000.6,N
1555672275.2,286046999.7,N
1555672295.1,286047000.3,N
1555672296.0,286047000.3,N
1555672315.8,286046999.4,N
1555672335.6,286046998.8,N
1555672355.5,286047000.0,N
1555672375.3,286046999.8,N
1555672395.2,286046999.8,N
1555672415.9,286047002.3,N
1555672435.7,286047002.4,N
1555672455.6,286047000.4,N
1555672475.4,286047001.1,N
1555672495.2,286047000.0,N
1555672515.1,286047000.6,N
1555672516.0,286047000.6,N
1555672535.8,286047000.4,N
1555672555.7,286047000.5,N
1555672575.5,286047000.0,N
1555672595.3,286046998.2,N
1555672615.2,286046998.5,N
1555672635.9,286046998.1,N
1555672655.7,286046998.4,N
1555672675.6,286047000.4,N
1555672695.4,286047000.2,N
1555672715.2,286046998.1,N
1555672735.1,286047000.9,N
1555672736.0,286047000.9,N
1555672755.8,286046998.3,N
1555672775.7,286046999.3,N
1555672795.5,286046998.9,N
1555672815.3,286047011.9,Y
1555672835.2,286047002.3,P
1555672855.0,286047002.0,N
1555672855.9,286047002.0,N
1555672875.8,286047002.5,N
1555672895.6,286046998.3,N
1555672915.5,286046998.5,N
1555672935.3,286046998.9,N
1555672955.1,286046999.3,N
1555672975.9,286046999.2,N
1555672995.7,286046999.5,N
1555673015.6,286047000.5,N
1555673035.6,286047001.1,N
1555673055.5,286047002.5,N
1555673075.3,286047001.7,N
1555673095.1,286047001.7,N
1555673115.9,286047004.1,N
1555673135.7,286047003.3,N
1555673155.6,286047005.2,Y
1555673175.4,286047003.9,P
1555673195.2,286047003.1,N
1555673215.5,286047004.3,P
1555673235.3,286047004.1,Y
1555673255.1,286046998.4,P
1555673275.9,286046999.3,N
1555673295.7,286046998.4,N
1555673315.6,286046999.1,N
1555673335.4,286046997.6,N
1555673355.2,286046997.2,N
1555673375.1,286046997.0,N
1555673376.0,286046997.0,N
1555673395.8,286046998.5,N
1555673415.6,286046997.0,N
1555673435.5,286046997.7,N
1555673455.3,286046997.3,N
1555673475.2,286046995.4,N
1555673495.9,286046995.7,N
1555673515.7,286046993.8,Y
1555673535.6,286046999.5,P
1555673555.4,286046998.6,N
1555673575.2,286047001.2,N
1555673595.1,286047002.0,N
1555673596.0,286047002.0,N
1555673615.8,286047002.2,N
1555673635.7,286047000.4,N
1555673655.5,286046998.3,N
1555673675.3,286046998.2,N
1555673695.2,286046998.1,N
1555673715.0,286047000.5,N
1555673715.9,286047000.5,N
1555673735.7,286047002.2,N
1555673755.6,286046999.9,N
1555673775.4,286046998.1,N
1555673795.5,286047000.8,N
1555673815.3,286046999.9,N
1555673835.2,286047002.3,N
1555673855.0,286047002.2,N
1555673855.9,286047002.2,N
1555673875.8,286047000.2,N
1555673895.6,286047002.7,N
1555673915.4,286047000.9,N
1555673935.3,286046999.4,N
1555673955.1,286046997.2,N
1555673975.8,286046997.4,N
1555673995.7,286046999.3,N
1555674015.5,286047001.2,N
1555674035.4,286047000.9,N
1555674055.2,286047002.7,N
1555674075.0,286047003.9,N
1555674075.9,286047003.9,N
1555674095.8,286047001.5,N
1555674115.6,286047001.8,N
1555674135.4,286047002.6,N
1555674155.3,286047001.3,N
1555674175.1,286047001.8,N
1555674195.9,286047001.8,N
1555674215.7,286047002.2,N
1555674235.5,286047002.7,N
1555674255.4,286047002.4,N
1555674275.2,286047002.4,N
1555674295.0,286047000.4,N
1555674295.9,286047000.4,N
1555674315.8,286047002.5,N
1555674335.6,286047001.7,N
1555674355.5,286047002.3,N
1555674375.3,286047002.8,N
1555674395.1,286047002.4,N
1555674415.9,286047002.3,N
1555674435.7,286047002.4,N
1555674455.6,286046999.7,N
1555674475.4,286047002.0,N
1555674495.2,286047002.4,N
1555674515.1,286047003.9,N
1555674516.0,286047003.9,N
1555674535.8,286047000.2,N
1555674555.6,286047000.5,N
1555674575.5,286047000.5,N
1555674595.3,286046999.7,N
1555674615.2,286047002.5,N
1555674635.9,286047002.8,N
1555674655.7,286047000.1,N
1555674675.6,286047002.3,N
1555674695.4,286047002.8,N
1555674715.2,286047002.8,N
1555674735.1,286047002.0,N
1555674736.0,286047002.0,N
1555674755.8,286047002.8,N
1555674775.7,286047002.7,N
1555674795.5,286047001.9,N
1555674815.3,286047002.0,N
1555674835.2,286046999.7,N
1555674855.0,286047002.5,N
1555674855.9,286047002.5,N
1555674875.7,286046999.7,N
1555674895.6,286047000.0,N
1555674915.4,286047002.7,N
1555674935.3,286047002.4,N
1555674955.1,286047002.6,N
1555674975.8,286047002.8,N
1555674995.7,286047002.8,N
1555675015.5,286047000.0,N
1555675035.4,286046999.9,N
1555675055.2,286047000.2,N
1555675075.0,286047002.7,N
1555675075.9,286047002.7,N
1555675095.8,286047002.4,N
1555675115.6,286047001.5,N
1555675135.4,286046999.8,N
1555675155.3,286046998.1,N
1555675175.1,286047001.0,N
1555675195.9,286047001.1,N
